QPF
0.00 0.00 0.00 0.00 0.00 0.00 0.00 0.00 0.00 0.00 0.00 0.00 0.00 0.00 0.00 0.00 0.00 0.00 0.00 0.00 0.00 0.00 0.00 0.00 0.00 0.00 0.00 0.00 0.00 0.00 0.00 0.00 0.00 0.00 0.00 0.00 0.00 0.00 0.00 0.00 0.00 0.00 0.00 0.00
0.00 0.00 0.00 0.00 0.00 0.00 0.00 0.00 0.00 0.00 0.00 0.00 0.00 0.00 0.00 0.00 0.00 0.00 0.00 0.00 0.00 0.00 0.00 0.00 0.00 0.00 0.00 0.00 0.00 0.00 0.00 0.00 0.00 0.00 0.00 0.00 0.00 0.00 0.00 0.00 0.00 0.00 0.00 0.00
0.00 0.00 0.00 0.00 0.00 0.00 0.00 0.00 0.00 0.00 0.00 0.00 0.00 0.00 0.00 0.00 0.00 0.00 0.00 0.00 0.00 0.00 0.00 0.00 0.00 0.00 0.00 0.00 0.00 0.00 0.00 0.00 0.00 0.00 0.00 0.00 0.00 0.00 0.00 0.00 0.00 0.00 0.00 0.00
0.00 0.00 0.00 0.00 0.00 0.00 0.00 0.00 0.00 0.00 0.00 0.00 0.00 0.00 0.00 0.00 0.00 0.00 0.00 0.00 0.00 0.00 0.00 0.00 0.00 0.00 0.00 0.00 0.00 0.00 0.00 0.00 0.00 0.00 0.00 0.00 0.00 0.00 0.00 0.00 0.00 0.00 0.00 0.00
0.00 0.00 0.00 0.00 0.00 0.00 0.00 0.00 0.00 0.00 0.00 0.00 0.00 0.00 0.00 0.00 0.00 0.00 0.00 0.00 0.00 0.00 0.00 0.00 0.00 0.00 0.00 0.00 0.00 0.00 0.00 0.00 0.00 0.00 0.00 0.00 0.00 0.00 0.00 0.00 0.00 0.00 0.00 0.00
0.00 0.00 0.00 0.00 0.00 0.00 0.00 0.00 0.00 0.00 0.00 0.00 0.00 0.00 0.00 0.00 0.00 0.00 0.00 0.00 0.00 0.00 0.00 0.00 0.00 0.00 0.00 0.00 0.00 0.00 0.00 0.00 0.00 0.00 0.00 0.00 0.02 0.01 0.00 0.00 0.00 0.01 0.01 0.00
0.00 0.00 0.00 0.00 0.00 0.00 0.00 0.00 0.00 0.00 0.00 0.00 0.00 0.00 0.00 0.00 0.00 0.00 0.00 0.00 0.00 0.00 0.00 0.00 0.00 0.00 0.00 0.00 0.00 0.00 0.00 0.00 0.00 0.00 0.00 0.04 0.03 0.03 0.02 0.01 0.01 0.01 0.00 0.01
0.00 0.00 0.00 0.00 0.00 0.00 0.00 0.00 0.00 0.00 0.00 0.00 0.00 0.00 0.00 0.00 0.00 0.00 0.00 0.00 0.00 0.00 0.00 0.00 0.00 0.00 0.00 0.00 0.00 0.00 0.00 0.00 0.00 0.00 0.00 0.02 0.04 0.03 0.03 0.02 0.03 0.04 0.03 0.02
0.00 0.00 0.00 0.00 0.00 0.00 0.00 0.00 0.00 0.00 0.00 0.00 0.00 0.00 0.00 0.00 0.00 0.00 0.00 0.00 0.00 0.00 0.00 0.00 0.00 0.00 0.00 0.00 0.00 0.00 0.00 0.00 0.00 0.00 0.00 0.00 0.02 0.00 0.01 0.01 0.03 0.03 0.02 0.09
0.00 0.00 0.00 0.00 0.00 0.00 0.00 0.00 0.00 0.00 0.00 0.00 0.00 0.00 0.00 0.00 0.00 0.00 0.00 0.00 0.00 0.00 0.00 0.00 0.00 0.00 0.00 0.00 0.00 0.01 0.00 0.01 0.00 0.00 0.00 0.00 0.00 0.01 0.01 0.01 0.01 0.01 0.01 0.02
0.00 0.00 0.00 0.00 0.00 0.00 0.00 0.00 0.00 0.00 0.00 0.00 0.00 0.00 0.00 0.00 0.00 0.00 0.00 0.00 0.00 0.00 0.00 0.00 0.01 0.00 0.00 0.00 0.00 0.03 0.04 0.01 0.04 0.00 0.00 0.00 0.00 0.00 0.00 0.01 0.00 0.00 0.01 0.01
0.00 0.00 0.00 0.00 0.00 0.00 0.00 0.00 0.00 0.00 0.00 0.00 0.00 0.00 0.00 0.00 0.00 0.00 0.00 0.00 0.00 0.00 0.00 0.00 0.00 0.00 0.00 0.00 0.00 0.00 0.01 0.01 0.06 0.03 0.01 0.00 0.00 0.00 0.01 0.00 0.00 0.00 0.00 0.01
0.00 0.00 0.00 0.00 0.00 0.00 0.00 0.00 0.00 0.00 0.00 0.00 0.00 0.00 0.00 0.00 0.00 0.00 0.00 0.00 0.00 0.00 0.00 0.00 0.00 0.00 0.00 0.00 0.00 0.00 0.00 0.00 0.00 0.00 0.00 0.00 0.00 0.00 0.02 0.02 0.00 0.00 0.00 0.01
0.00 0.00 0.00 0.00 0.00 0.00 0.00 0.00 0.00 0.00 0.00 0.00 0.00 0.00 0.00 0.00 0.00 0.00 0.00 0.00 0.00 0.00 0.00 0.00 0.00 0.00 0.00 0.00 0.00 0.00 0.00 0.00 0.00 0.00 0.00 0.00 0.00 0.00 0.00 0.00 0.00 0.00 0.00 0.00
0.00 0.00 0.00 0.00 0.00 0.00 0.00 0.00 0.00 0.00 0.00 0.00 0.00 0.00 0.00 0.00 0.00 0.00 0.00 0.00 0.00 0.00 0.00 0.00 0.00 0.00 0.00 0.00 0.00 0.00 0.00 0.00 0.00 0.00 0.00 0.00 0.00 0.00 0.00 0.00 0.00 0.00 0.00 0.00
0.00 0.00 0.00 0.00 0.00 0.00 0.00 0.00 0.00 0.00 0.00 0.00 0.00 0.00 0.00 0.00 0.00 0.00 0.00 0.00 0.00 0.00 0.00 0.00 0.00 0.00 0.00 0.00 0.00 0.00 0.00 0.00 0.00 0.00 0.00 0.00 0.00 0.00 0.00 0.00 0.00 0.00 0.00 0.00
0.00 0.00 0.00 0.00 0.00 0.00 0.00 0.00 0.00 0.00 0.00 0.00 0.00 0.00 0.00 0.00 0.00 0.00 0.00 0.00 0.00 0.00 0.00 0.00 0.00 0.00 0.00 0.00 0.00 0.00 0.00 0.00 0.00 0.00 0.00 0.00 0.00 0.00 0.00 0.00 0.00 0.00 0.00 0.00
0.00 0.00 0.00 0.00 0.00 0.00 0.00 0.00 0.00 0.00 0.00 0.00 0.00 0.00 0.01 0.00 0.00 0.00 0.00 0.00 0.00 0.00 0.00 0.00 0.00 0.00 0.00 0.00 0.00 0.00 0.00 0.00 0.00 0.00 0.00 0.00 0.00 0.00 0.00 0.00 0.00 0.00 0.00 0.00
0.00 0.00 0.00 0.00 0.00 0.00 0.00 0.00 0.00 0.00 0.00 0.00 0.00 0.00 0.01 0.00 0.00 0.00 0.00 0.00 0.00 0.00 0.00 0.00 0.00 0.00 0.00 0.00 0.00 0.00 0.00 0.00 0.00 0.00 0.00 0.00 0.00 0.00 0.00 0.00 0.00 0.00 0.00 0.00
0.00 0.00 0.00 0.00 0.00 0.00 0.00 0.00 0.00 0.00 0.00 0.00 0.00 0.00 0.01 0.01 0.01 0.00 0.00 0.00 0.00 0.00 0.00 0.00 0.00 0.00 0.00 0.00 0.00 0.00 0.00 0.00 0.00 0.00 0.00 0.00 0.00 0.00 0.00 0.00 0.00 0.00 0.00 0.00
0.00 0.00 0.00 0.02 0.00 0.00 0.00 0.00 0.01 0.01 0.00 0.00 0.00 0.00 0.00 0.01 0.04 0.01 0.00 0.00 0.00 0.00 0.00 0.00 0.00 0.00 0.00 0.00 0.00 0.00 0.00 0.00 0.00 0.00 0.00 0.00 0.00 0.00 0.00 0.00 0.00 0.00 0.00 0.00
0.00 0.00 0.02 0.05 0.02 0.01 0.00 0.00 0.00 0.00 0.00 0.00 0.00 0.00 0.00 0.01 0.00 0.01 0.00 0.02 0.04 0.01 0.00 0.00 0.00 0.00 0.00 0.00 0.00 0.00 0.00 0.00 0.00 0.00 0.00 0.00 0.00 0.00 0.00 0.00 0.00 0.00 0.00 0.00
0.00 0.02 0.02 0.02 0.01 0.00 0.00 0.00 0.00 0.00 0.00 0.00 0.00 0.00 0.00 0.00 0.00 0.02 0.02 0.01 0.01 0.00 0.01 0.00 0.00 0.00 0.00 0.00 0.00 0.00 0.00 0.00 0.00 0.00 0.00 0.00 0.00 0.00 0.00 0.00 0.00 0.00 0.00 0.00
0.00 0.02 0.01 0.00 0.00 0.00 0.00 0.01 0.00 0.00 0.00 0.01 0.00 0.00 0.00 0.00 0.00 0.02 0.05 0.01 0.00 0.00 0.00 0.00 0.00 0.00 0.00 0.00 0.00 0.00 0.00 0.00 0.00 0.00 0.00 0.00 0.00 0.00 0.00 0.00 0.00 0.00 0.00 0.00
0.00 0.00 0.00 0.00 0.00 0.00 0.02 0.03 0.04 0.02 0.02 0.00 0.00 0.02 0.04 0.04 0.04 0.02 0.01 0.01 0.01 0.00 0.00 0.00 0.00 0.00 0.00 0.00 0.00 0.00 0.00 0.00 0.00 0.00 0.00 0.00 0.00 0.00 0.00 0.00 0.00 0.00 0.00 0.00
0.00 0.00 0.00 0.00 0.00 0.00 0.01 0.01 0.03 0.04 0.01 0.00 0.00 0.01 0.04 0.03 0.02 0.01 0.00 0.00 0.00 0.00 0.00 0.00 0.00 0.00 0.01 0.00 0.00 0.00 0.00 0.00 0.00 0.00 0.00 0.00 0.00 0.00 0.00 0.00 0.00 0.00 0.00 0.00
0.00 0.00 0.00 0.00 0.00 0.01 0.00 0.01 0.01 0.02 0.02 0.01 0.02 0.01 0.00 0.00 0.00 0.00 0.00 0.00 0.00 0.01 0.00 0.00 0.01 0.02 0.01 0.01 0.00 0.00 0.00 0.00 0.00 0.00 0.00 0.00 0.00 0.00 0.00 0.00 0.00 0.00 0.00 0.00
MSLP
1020.05 1019.54 1019.02 1018.47 1017.62 1016.27 1015.29 1015.35 1013.59 1009.52 1009.20 1011.31 1012.12 1011.99 1010.56 1009.15 1008.16 1007.59 1007.71 1007.95 1008.68 1009.39 1009.74 1010.77 1010.83 1010.43 1009.83 1009.57 1009.28 1009.14 1008.73 1008.89 1008.50 1007.30 1006.07 1005.37 1005.41 1006.51 1007.78 1009.46 1010.12 1010.15 1009.96 1008.95
1020.02 1019.61 1019.08 1018.57 1018.03 1017.62 1017.61 1016.32 1013.53 1009.12 1009.33 1010.94 1011.72 1010.65 1009.79 1009.15 1008.24 1007.72 1007.72 1008.23 1008.61 1009.35 1010.51 1011.44 1011.46 1010.88 1009.79 1009.63 1009.60 1009.61 1009.39 1009.63 1009.40 1008.18 1007.00 1005.92 1006.74 1007.08 1007.56 1008.11 1008.94 1009.40 1009.41 1008.41
1019.81 1019.47 1019.10 1018.58 1018.17 1017.88 1017.78 1016.88 1014.46 1011.44 1010.27 1010.35 1010.63 1010.51 1009.65 1008.53 1007.27 1007.20 1007.64 1008.04 1008.41 1009.69 1010.91 1011.71 1011.84 1011.37 1010.40 1009.72 1009.30 1009.19 1009.60 1010.50 1010.54 1010.35 1009.85 1008.76 1008.16 1007.96 1007.66 1007.92 1008.85 1009.01 1008.82 1008.21
1019.55 1019.24 1018.92 1018.49 1018.07 1017.64 1017.82 1016.68 1014.86 1012.61 1011.91 1011.21 1010.84 1010.45 1009.39 1008.47 1007.40 1007.43 1007.68 1008.40 1008.81 1009.63 1011.20 1011.90 1012.09 1011.73 1011.19 1010.12 1009.60 1009.40 1009.87 1010.63 1010.79 1010.36 1010.28 1009.29 1009.25 1009.26 1008.72 1008.42 1008.57 1008.65 1008.32 1008.58
1019.22 1018.94 1018.74 1018.42 1017.94 1017.43 1017.40 1016.50 1015.09 1013.36 1012.57 1011.72 1010.96 1009.42 1008.72 1007.99 1007.50 1007.52 1008.10 1008.64 1009.04 1009.39 1010.71 1011.14 1011.60 1011.96 1011.78 1011.06 1010.10 1010.40 1010.76 1011.28 1011.33 1011.23 1010.47 1010.29 1010.08 1010.24 1009.79 1009.47 1009.24 1008.97 1008.83 1009.04
1018.94 1018.65 1018.40 1018.24 1017.87 1017.49 1017.28 1015.68 1014.75 1014.31 1012.73 1011.90 1011.02 1009.73 1008.34 1007.68 1007.32 1007.78 1007.58 1008.18 1008.99 1009.63 1009.94 1010.33 1010.26 1010.65 1010.98 1011.41 1011.36 1011.53 1011.84 1012.24 1012.84 1012.96 1012.30 1011.30 1011.58 1011.87 1011.64 1011.30 1011.24 1010.88 1010.10 1009.28
1018.54 1018.40 1018.21 1018.00 1017.89 1017.81 1017.92 1016.91 1016.07 1015.23 1013.59 1012.19 1011.12 1009.82 1008.69 1007.51 1007.33 1007.68 1007.91 1008.12 1008.67 1009.26 1009.27 1009.72 1010.41 1011.26 1012.00 1011.92 1011.64 1011.91 1012.62 1013.12 1013.76 1014.16 1013.20 1012.96 1013.00 1012.73 1012.33 1011.85 1011.79 1011.38 1010.79 1010.48
1018.16 1017.98 1017.86 1017.72 1017.63 1017.60 1017.68 1017.29 1016.87 1015.74 1014.05 1012.34 1010.85 1009.75 1008.60 1008.07 1007.80 1007.79 1007.93 1008.32 1008.65 1008.90 1009.73 1011.16 1012.29 1012.82 1012.87 1012.93 1012.57 1012.14 1012.52 1013.52 1014.99 1015.32 1014.91 1014.12 1013.05 1012.38 1012.28 1012.44 1012.69 1012.37 1011.80 1011.62
1017.75 1017.57 1017.39 1017.31 1017.31 1017.24 1017.24 1016.85 1016.64 1016.16 1014.59 1012.10 1010.91 1009.93 1009.27 1008.64 1008.45 1008.49 1008.42 1008.37 1008.31 1009.10 1011.01 1012.68 1014.31 1014.81 1015.10 1014.55 1013.64 1012.87 1013.18 1013.77 1015.00 1016.07 1015.53 1014.44 1013.02 1012.17 1011.96 1012.25 1013.28 1012.81 1012.92 1012.82
1017.33 1017.13 1017.00 1016.84 1016.89 1016.89 1016.92 1016.47 1015.97 1015.71 1014.46 1011.74 1010.55 1010.10 1009.71 1009.14 1008.66 1008.79 1008.89 1008.68 1008.91 1009.69 1012.05 1013.84 1015.17 1015.90 1015.98 1015.61 1014.92 1014.49 1014.43 1015.03 1015.97 1016.35 1015.53 1014.12 1012.88 1012.33 1011.53 1012.23 1013.22 1013.13 1013.47 1013.26
1016.82 1016.72 1016.51 1016.42 1016.47 1016.51 1016.59 1015.75 1015.27 1015.05 1013.99 1011.82 1010.58 1009.93 1009.82 1009.60 1008.95 1009.07 1009.08 1009.32 1010.02 1011.08 1012.71 1014.08 1015.26 1015.84 1016.19 1015.93 1015.03 1014.47 1014.77 1015.76 1016.84 1016.87 1015.57 1013.87 1012.31 1012.10 1011.99 1012.37 1012.67 1012.83 1013.20 1013.57
1016.44 1016.21 1016.07 1015.99 1016.10 1016.08 1016.23 1016.15 1014.33 1014.41 1014.37 1011.88 1010.38 1009.56 1008.78 1008.96 1008.47 1008.34 1008.77 1009.50 1010.00 1010.63 1012.07 1013.45 1014.30 1015.32 1015.85 1015.51 1014.87 1014.05 1014.23 1014.32 1015.24 1015.56 1014.44 1013.12 1012.18 1011.45 1011.61 1011.94 1012.73 1013.20 1012.91 1013.26
1016.00 1015.84 1015.61 1015.58 1015.75 1015.67 1015.77 1015.90 1015.14 1014.21 1013.40 1011.53 1010.59 1008.48 1007.07 1007.42 1007.50 1007.01 1008.30 1009.29 1009.30 1009.96 1010.42 1012.08 1013.20 1013.85 1014.26 1014.53 1013.80 1013.02 1012.98 1012.88 1013.78 1013.95 1012.89 1012.54 1012.36 1011.66 1012.21 1012.24 1012.41 1012.49 1012.92 1013.15
1015.66 1015.46 1015.20 1015.36 1015.38 1015.35 1015.30 1015.67 1014.90 1014.72 1013.90 1012.60 1009.77 1007.86 1007.49 1006.60 1006.63 1006.64 1007.32 1008.12 1008.86 1009.59 1010.34 1011.81 1012.78 1013.23 1012.58 1012.89 1012.51 1012.50 1012.05 1012.01 1012.85 1013.05 1012.37 1012.07 1011.82 1011.57 1011.56 1011.90 1012.19 1012.58 1013.12 1013.47
1015.16 1015.07 1015.04 1015.07 1015.02 1015.02 1015.02 1015.05 1014.28 1014.18 1014.31 1013.15 1010.77 1008.64 1006.95 1006.35 1006.54 1006.88 1007.38 1008.07 1009.01 1010.23 1011.22 1012.19 1012.53 1011.89 1011.99 1012.42 1012.39 1012.33 1011.43 1011.47 1011.98 1012.34 1011.81 1011.71 1011.82 1011.68 1011.47 1012.10 1012.68 1012.92 1013.20 1013.58
1014.79 1014.85 1014.86 1014.88 1014.80 1014.83 1015.08 1014.38 1013.34 1013.49 1013.89 1013.45 1011.56 1008.74 1007.03 1006.29 1006.49 1007.17 1007.69 1008.42 1009.24 1010.23 1011.20 1011.77 1011.73 1011.12 1011.43 1012.61 1012.83 1011.61 1010.86 1010.46 1010.51 1010.99 1011.18 1011.40 1011.55 1011.80 1011.79 1012.31 1012.72 1013.16 1013.76 1014.04
1014.62 1014.70 1014.71 1014.67 1014.61 1014.95 1014.62 1013.90 1013.33 1013.18 1013.88 1013.26 1011.90 1009.77 1007.45 1006.67 1006.91 1007.79 1008.32 1008.52 1009.42 1010.22 1011.06 1011.59 1011.62 1011.42 1011.57 1012.48 1012.55 1011.35 1010.80 1010.48 1010.45 1010.49 1010.86 1011.64 1011.79 1012.22 1012.23 1012.43 1012.98 1013.32 1013.84 1014.45
1014.42 1014.44 1014.38 1014.41 1014.45 1014.42 1013.70 1011.68 1011.60 1012.97 1013.31 1012.60 1012.02 1010.13 1008.50 1007.28 1007.93 1008.52 1008.58 1009.39 1010.05 1010.47 1010.89 1011.37 1011.74 1011.66 1011.80 1012.31 1011.42 1010.81 1010.64 1010.65 1010.72 1010.82 1010.94 1011.29 1011.66 1012.08 1012.53 1012.84 1013.37 1014.08 1014.84 1015.38
1014.21 1014.20 1014.22 1014.39 1014.26 1013.65 1011.91 1011.00 1011.36 1011.76 1012.47 1012.34 1011.79 1010.62 1009.46 1008.26 1008.33 1008.68 1009.31 1009.71 1010.92 1010.79 1011.09 1011.28 1011.71 1012.22 1011.99 1011.21 1011.01 1010.59 1010.52 1010.45 1010.88 1010.87 1011.11 1011.61 1011.99 1012.50 1012.84 1013.22 1013.84 1014.74 1015.75 1016.24
1014.14 1014.32 1014.46 1013.88 1012.15 1010.91 1011.16 1011.37 1011.72 1011.88 1011.85 1011.97 1011.62 1010.40 1009.91 1009.49 1009.22 1009.35 1010.02 1010.31 1010.89 1011.41 1010.89 1010.83 1011.26 1011.74 1010.90 1010.29 1010.14 1010.00 1010.25 1010.18 1010.53 1011.14 1011.57 1011.83 1012.50 1012.83 1013.16 1013.44 1013.91 1014.88 1015.77 1016.40
1014.28 1014.18 1013.71 1012.19 1011.18 1011.27 1011.50 1011.85 1012.06 1011.82 1011.78 1011.07 1010.37 1010.19 1010.28 1010.00 1010.09 1010.34 1010.62 1010.81 1011.14 1011.51 1011.02 1010.89 1011.46 1011.34 1010.59 1009.97 1009.94 1009.74 1009.76 1009.96 1010.29 1010.58 1011.02 1011.56 1012.21 1012.81 1013.32 1014.03 1014.50 1014.93 1015.64 1016.24
1014.36 1014.34 1013.65 1012.74 1011.76 1011.80 1011.95 1011.75 1011.26 1010.95 1010.43 1009.63 1009.41 1009.58 1009.82 1010.47 1010.28 1010.73 1011.30 1011.52 1011.75 1011.77 1011.73 1010.98 1011.20 1010.58 1009.76 1009.62 1009.55 1009.61 1009.69 1009.84 1010.28 1010.47 1011.11 1011.66 1012.26 1012.69 1013.35 1014.05 1014.79 1015.30 1015.90 1016.58
1014.01 1013.92 1013.38 1012.84 1012.35 1012.27 1011.86 1011.01 1010.31 1009.52 1008.66 1008.41 1008.73 1009.71 1010.02 1010.60 1010.69 1011.30 1011.65 1012.06 1012.45 1011.64 1011.87 1010.96 1010.39 1009.52 1009.15 1009.16 1009.11 1009.35 1009.47 1009.66 1010.22 1010.78 1011.11 1011.71 1012.61 1013.24 1013.65 1014.60 1015.19 1015.70 1016.38 1016.95
1013.85 1013.59 1013.46 1013.04 1011.94 1011.14 1010.25 1009.68 1009.08 1008.22 1007.94 1008.19 1008.38 1009.16 1009.81 1010.47 1011.13 1011.64 1011.72 1011.88 1011.99 1012.16 1011.16 1010.13 1009.28 1008.75 1008.70 1008.88 1008.95 1009.28 1009.65 1009.90 1010.40 1010.96 1011.58 1012.24 1012.99 1013.83 1014.42 1014.89 1015.46 1016.07 1016.85 1017.43
1013.69 1013.45 1012.75 1011.70 1010.70 1009.87 1009.55 1009.24 1008.71 1008.08 1007.79 1007.78 1008.11 1008.61 1009.21 1010.22 1011.06 1011.35 1011.15 1011.57 1011.25 1010.02 1009.13 1008.38 1007.75 1007.86 1008.39 1008.76 1008.88 1009.29 1009.84 1010.24 1010.74 1011.28 1012.01 1012.65 1013.31 1014.04 1014.89 1015.48 1015.93 1016.51 1017.28 1017.86
1013.51 1013.01 1012.04 1010.84 1010.50 1009.74 1009.21 1008.87 1008.61 1008.26 1007.94 1007.71 1008.04 1009.14 1009.79 1010.17 1010.23 1010.51 1010.08 1009.50 1008.82 1008.24 1007.65 1007.23 1007.19 1007.72 1008.09 1008.45 1008.88 1009.37 1009.94 1010.57 1011.13 1011.66 1012.29 1012.97 1013.64 1014.24 1014.95 1015.58 1016.11 1016.76 1017.32 1018.03
1012.77 1011.91 1010.98 1010.63 1010.15 1009.62 1009.07 1008.48 1008.22 1007.84 1008.77 1008.78 1008.48 1009.11 1009.42 1009.87 1010.00 1009.73 1009.01 1008.50 1007.84 1007.34 1007.24 1007.22 1007.03 1007.41 1007.88 1008.51 1009.13 1009.48 1009.94 1010.60 1011.25 1011.88 1012.55 1013.17 1013.95 1014.40 1015.02 1015.93 1016.65 1016.98 1017.37 1017.86
Thickness
5663 5665 5668 5671 5676 5686 5692 5685 5682 5726 5729 5679 5669 5668 5689 5709 5707 5716 5709 5706 5692 5683 5679 5663 5672 5677 5690 5703 5706 5693 5708 5693 5693 5718 5745 5761 5759 5746 5733 5704 5719 5720 5720 5725
5655 5657 5660 5663 5665 5669 5665 5672 5681 5726 5718 5666 5669 5686 5697 5702 5700 5703 5701 5695 5695 5689 5672 5659 5667 5675 5698 5697 5693 5691 5699 5681 5674 5698 5720 5745 5733 5742 5746 5730 5724 5719 5715 5726
5648 5649 5651 5654 5657 5658 5659 5664 5670 5691 5698 5693 5686 5682 5685 5691 5714 5707 5705 5698 5699 5677 5665 5653 5659 5662 5681 5689 5697 5704 5701 5674 5679 5667 5681 5706 5711 5726 5735 5729 5710 5721 5726 5747
5640 5641 5643 5646 5650 5653 5652 5659 5667 5684 5668 5679 5683 5682 5685 5687 5693 5703 5696 5687 5683 5677 5653 5650 5651 5655 5661 5682 5692 5697 5691 5675 5684 5699 5696 5711 5710 5709 5723 5725 5729 5730 5746 5744
5632 5634 5636 5639 5643 5647 5648 5653 5660 5671 5669 5675 5676 5679 5685 5689 5693 5694 5684 5676 5678 5675 5655 5661 5652 5649 5649 5656 5680 5676 5674 5666 5677 5679 5697 5698 5698 5700 5711 5715 5720 5735 5739 5736
5625 5627 5630 5632 5635 5639 5641 5656 5661 5657 5664 5669 5671 5673 5687 5692 5696 5696 5699 5689 5674 5668 5674 5675 5677 5672 5669 5666 5667 5663 5661 5657 5655 5656 5664 5687 5667 5679 5689 5700 5706 5709 5726 5744
5618 5619 5622 5624 5626 5627 5625 5635 5641 5643 5652 5664 5667 5674 5689 5692 5696 5685 5689 5691 5678 5681 5692 5686 5677 5669 5660 5664 5667 5662 5655 5650 5642 5645 5657 5644 5669 5680 5694 5698 5702 5712 5724 5732
5610 5612 5614 5616 5618 5619 5619 5623 5627 5636 5641 5659 5667 5674 5685 5688 5690 5689 5688 5685 5689 5691 5675 5649 5636 5634 5648 5647 5656 5658 5658 5643 5626 5627 5630 5653 5671 5681 5685 5685 5688 5700 5710 5720
5602 5603 5605 5607 5609 5611 5612 5617 5621 5626 5636 5649 5667 5666 5674 5670 5671 5676 5681 5689 5694 5684 5654 5638 5619 5613 5619 5628 5637 5656 5654 5645 5632 5619 5629 5634 5657 5683 5693 5691 5665 5695 5700 5702
5592 5594 5595 5599 5600 5601 5603 5611 5619 5622 5631 5651 5664 5657 5656 5672 5674 5663 5674 5680 5680 5677 5641 5629 5617 5613 5619 5613 5623 5629 5628 5627 5617 5617 5622 5637 5660 5673 5691 5666 5668 5690 5691 5695
5585 5587 5589 5591 5592 5594 5595 5607 5615 5620 5630 5643 5660 5664 5659 5661 5670 5660 5671 5666 5663 5651 5639 5632 5621 5615 5609 5613 5626 5634 5630 5611 5603 5601 5614 5630 5669 5673 5664 5674 5686 5685 5688 5689
5579 5582 5584 5585 5586 5588 5588 5593 5613 5616 5619 5636 5656 5666 5675 5674 5679 5672 5670 5665 5664 5661 5645 5638 5632 5621 5613 5614 5620 5639 5631 5629 5616 5622 5624 5650 5665 5679 5680 5681 5676 5680 5688 5690
5575 5577 5580 5582 5582 5583 5583 5586 5598 5611 5620 5631 5640 5660 5682 5685 5689 5695 5663 5665 5676 5673 5671 5652 5644 5645 5630 5622 5631 5655 5657 5653 5637 5641 5659 5662 5667 5677 5672 5673 5676 5682 5684 5685
5570 5572 5576 5577 5577 5578 5579 5581 5592 5596 5606 5611 5637 5667 5668 5688 5693 5696 5690 5685 5683 5677 5670 5655 5645 5643 5653 5640 5651 5647 5655 5661 5644 5644 5661 5668 5675 5676 5679 5678 5678 5675 5674 5678
5566 5568 5570 5572 5573 5573 5575 5579 5588 5593 5596 5601 5623 5649 5673 5684 5685 5686 5685 5681 5675 5664 5658 5649 5647 5654 5656 5648 5647 5647 5661 5656 5642 5639 5662 5661 5665 5671 5677 5672 5669 5669 5667 5665
5562 5563 5565 5566 5569 5568 5569 5577 5591 5592 5591 5598 5608 5642 5661 5674 5678 5674 5675 5672 5668 5661 5655 5650 5654 5667 5656 5638 5632 5655 5666 5671 5669 5664 5669 5666 5667 5668 5673 5667 5666 5665 5659 5658
5557 5558 5559 5561 5563 5562 5567 5579 5585 5587 5585 5594 5602 5618 5650 5666 5666 5661 5662 5666 5662 5658 5651 5650 5652 5659 5653 5634 5631 5659 5667 5669 5671 5671 5670 5663 5666 5661 5666 5666 5664 5663 5660 5654
5553 5554 5556 5556 5558 5560 5565 5585 5589 5582 5583 5593 5590 5608 5631 5655 5643 5645 5654 5649 5648 5651 5651 5648 5646 5651 5648 5637 5650 5663 5668 5665 5665 5666 5668 5666 5665 5662 5659 5659 5656 5651 5646 5646
5549 5550 5551 5550 5550 5554 5572 5584 5584 5583 5582 5579 5587 5600 5610 5636 5638 5639 5640 5640 5629 5640 5641 5642 5644 5634 5636 5650 5652 5664 5662 5665 5659 5664 5664 5660 5658 5653 5653 5652 5646 5636 5632 5633
5543 5544 5542 5545 5559 5574 5574 5570 5568 5569 5575 5578 5585 5605 5606 5622 5626 5630 5628 5629 5624 5620 5635 5640 5636 5635 5653 5660 5662 5665 5662 5664 5662 5655 5652 5654 5647 5646 5645 5643 5643 5635 5628 5624
5538 5540 5544 5555 5563 5562 5561 5557 5557 5564 5568 5580 5594 5601 5602 5613 5611 5613 5617 5621 5618 5612 5625 5630 5625 5631 5649 5660 5659 5661 5666 5665 5664 5662 5660 5656 5650 5643 5639 5635 5634 5633 5628 5622
5532 5531 5535 5544 5552 5551 5553 5551 5562 5566 5573 5590 5594 5597 5603 5602 5608 5605 5606 5606 5605 5606 5611 5624 5614 5636 5650 5654 5658 5657 5659 5661 5658 5660 5656 5652 5648 5644 5639 5635 5630 5626 5622 5615
5528 5533 5539 5543 5546 5536 5546 5553 5562 5570 5589 5596 5597 5592 5592 5594 5597 5595 5594 5593 5589 5605 5603 5611 5623 5641 5651 5651 5654 5655 5655 5657 5655 5654 5652 5647 5640 5637 5636 5626 5622 5618 5610 5603
5530 5535 5532 5534 5545 5552 5560 5566 5575 5585 5593 5592 5595 5590 5591 5590 5588 5587 5594 5593 5592 5588 5596 5619 5634 5644 5648 5648 5650 5649 5650 5652 5649 5647 5643 5639 5634 5628 5625 5621 5615 5608 5599 5591
5528 5531 5535 5547 5557 5566 5571 5572 5580 5588 5593 5597 5596 5596 5594 5589 5583 5586 5593 5586 5587 5603 5621 5635 5645 5646 5644 5643 5644 5643 5642 5640 5639 5638 5634 5631 5628 5623 5615 5611 5605 5599 5590 5582
5523 5531 5542 5553 5558 5566 5573 5576 5580 5586 5592 5597 5596 5587 5583 5583 5588 5590 5597 5609 5615 5624 5631 5639 5642 5640 5639 5639 5640 5639 5636 5633 5631 5630 5628 5625 5621 5616 5610 5605 5600 5592 5585 5575
5530 5535 5546 5553 5557 5562 5570 5580 5583 5587 5579 5583 5590 5590 5587 5585 5587 5595 5606 5612 5619 5628 5633 5635 5639 5641 5638 5635 5634 5634 5634 5631 5627 5623 5621 5616 5611 5608 5604 5594 5586 5581 5576 5568